Weather WX

World > North America > United States > Pennsylvania

Bristol, Pennsylvania Regional Weather

Lat: 40.10N, Lon: 74.85W
Wx Zone: PAZ069
Feedback

Bristol, PA Regional Weather

Expires:201906200300;;761262
ASUS41 KPHI 200212
RWRPHI

REGIONAL WEATHER ROUNDUP
NATIONAL WEATHER SERVICE MOUNT HOLLY NJ
1000 PM EDT WED JUN 19 2019

NOTE:  "FAIR" INDICATES FEW OR NO CLOUDS BELOW 12,000 FEET WITH NO
SIGNIFICANT WEATHER AND/OR OBSTRUCTIONS TO VISIBILITY.

 * = STATION DOES NOT REPORT PRECIPITATION (E.G. RAIN, SNOW, ETC.) 
        OR FOG.


PAZ043-044-047-054-055-060>062-066>071-200300-
EASTERN PENNSYLVANIA
  
CITY           SKY/WX    TMP DP  RH WIND       PRES   REMARKS
PHILADELPHIA   MOCLDY    73  70  90 E6        29.73S                  
NORTH PHILA    MOCLDY    73  68  84 NE5       29.76R                  
BLUE BELL*     CLOUDY    71  70  96 NE7       29.75S                  
DOYLESTOWN     CLOUDY    70  67  90 CALM      29.75S FOG              
QUAKERTOWN*    CLOUDY    70  70 100 E6        29.76  FOG              
PERKASIE*      CLOUDY    68  68 100 E5        29.77S FOG              
POTTSTOWN      CLOUDY    72  71  97 E6        29.76S                  
LANCASTER      CLOUDY    75  73  93 E12       29.72S                  
COATESVILLE    MOCLDY    73  72  94 E9        29.76S                  
WEST CHESTER   MOCLDY    72  70  94 E5        29.75R                  
READING        LGT RAIN  73  72  96 E3        29.72S                  
ALLENTOWN      CLOUDY    71  68  90 E7        29.75S                  
QN CITY/ALNTWN LGT RAIN N/A N/A N/A E3        29.76S                  
MOUNT POCONO   FOG       65  65 100 E6        29.81R VSB 1/4          
HAZLETON       FOG       68  66  94 SE5       29.81S VSB 1/4          
LEHIGHTON      CLOUDY    70  70 100 CALM      29.75F FOG              
WILKES BARRE   FAIR      71  67  87 VRB5      29.75S                  

$$

SKY/WX - Weather  TMP - Temperature  DP - Dew Point  RH - Relative Humidity
WIND - Wind Direction/Speed PRES - Barometric Pressure VSB - Visibility
WCI - Wind Chill Index E13G22 Wind - East Wind 13 mph/Gusts of 22 mph